Location: Bennemühlen
(52.5740°N, 9.7135°E)
Time: 17:37:35
(UTC+00:00)

SPOT 3 Rocket - Pass Details

Date: 19 May 2025
Orbit: 775 x 790 km, 98.5° (Epoch: 17 June)

Event Time Altitude Azimuth Distance (km) Brightness Sun altitude
Exits shadow 20:03:01 - 144° (SE) 2,582 5.6 -6.1°
Reaches altitude 10° 20:03:40 10° 142° (SE) 2,326 5.3 -6.2°
Maximum altitude 20:08:38 53° 67° (ENE) 958 3.9 -6.7°
Drops below altitude 10° 20:13:38 10° 352° (N) 2,338 6.9 -7.2°
Sets 20:16:00 0° 348° (NNW) 3,270 7.9 -7.5°
